Hourly Weather Linz

Today, 16 January, Saturday

Time Temperature Precipitation Wind Pressure Humidity
00:00 -5°C° 0.3 mm 3 mps 738 mmHg 94%
01:00 -6°C° 0 mm 3 mps 738 mmHg 94%
02:00 -6°C° 0.1 mm 3 mps 738 mmHg 94%
03:00 -6°C° 0.1 mm 3 mps 738 mmHg 94%
04:00 -6°C° 0.1 mm 3 mps 738 mmHg 94%
05:00 -6°C° 0.2 mm 3 mps 739 mmHg 94%
06:00 -7°C° 0.2 mm 3 mps 739 mmHg 94%
07:00 -6°C° 0 mm 3 mps 739 mmHg 95%
08:00 -6°C° 0.1 mm 3 mps 739 mmHg 93%
09:00 -6°C° 0.1 mm 3 mps 739 mmHg 91%
10:00 -7°C° 0.1 mm 4 mps 739 mmHg 90%
11:00 -5°C° 0.1 mm 4 mps 738 mmHg 88%
12:00 -5°C° 0.1 mm 5 mps 738 mmHg 87%
13:00 -4°C° 0 mm 4 mps 737 mmHg 86%
14:00 -4°C° 0.1 mm 4 mps 737 mmHg 87%
15:00 -4°C° 0.1 mm 4 mps 737 mmHg 89%
16:00 -4°C° 0.1 mm 4 mps 737 mmHg 90%
17:00 -5°C° 0.1 mm 4 mps 737 mmHg 90%
18:00 -5°C° 0.1 mm 4 mps 737 mmHg 91%
19:00 -7°C° 0.1 mm 4 mps 737 mmHg 92%
20:00 -6°C° 0.1 mm 3 mps 737 mmHg 92%
21:00 -7°C° 0.1 mm 3 mps 737 mmHg 93%
22:00 -7°C° 0.1 mm 3 mps 737 mmHg 94%
23:00 -8°C° 0 mm 3 mps 736 mmHg 94%

Tomorrow, 17 January, Sunday

Time Temperature Precipitation Wind Pressure Humidity
00:00 -7°C° 0 mm 2 mps 736 mmHg 94%
01:00 -8°C° 0 mm 2 mps 735 mmHg 94%
02:00 -8°C° 0 mm 2 mps 735 mmHg 93%
03:00 -8°C° 0 mm 2 mps 734 mmHg 93%
04:00 -7°C° 0 mm 1 mps 734 mmHg 92%
05:00 -8°C° 0 mm 1 mps 734 mmHg 92%
06:00 -8°C° 0 mm 1 mps 734 mmHg 91%
07:00 -8°C° 0 mm 1 mps 733 mmHg 90%
08:00 -7°C° 0 mm 1 mps 733 mmHg 89%
09:00 -6°C° 0 mm 0 mps 733 mmHg 88%
10:00 -5°C° 0 mm 0 mps 733 mmHg 87%
11:00 -5°C° 0 mm 0 mps 733 mmHg 86%
12:00 -4°C° 0 mm 0 mps 733 mmHg 85%
13:00 -3°C° 0 mm 0 mps 733 mmHg 84%
14:00 -3°C° 0 mm 0 mps 733 mmHg 87%
15:00 -4°C° 0 mm 0 mps 733 mmHg 90%
16:00 -5°C° 0 mm 0 mps 733 mmHg 92%
17:00 -5°C° 0 mm 0 mps 734 mmHg 92%
18:00 -6°C° 0 mm 0 mps 735 mmHg 93%
19:00 -7°C° 0 mm 0 mps 735 mmHg 93%
20:00 -7°C° 0 mm 1 mps 736 mmHg 93%
21:00 -7°C° 0 mm 1 mps 736 mmHg 93%
22:00 -8°C° 0 mm 1 mps 737 mmHg 93%
23:00 -8°C° 0 mm 1 mps 737 mmHg 94%

Day after tomorrow, 18 January, Monday

Time Temperature Precipitation Wind Pressure Humidity
00:00 -8°C° 0 mm 1 mps 737 mmHg 94%
01:00 -8°C° 0 mm 1 mps 738 mmHg 95%
02:00 -7°C° 0.2 mm 1 mps 737 mmHg 95%
03:00 -6°C° 0.2 mm 1 mps 737 mmHg 96%
04:00 -6°C° 0.2 mm 1 mps 737 mmHg 96%
05:00 -4°C° 0.5 mm 1 mps 738 mmHg 96%
06:00 -3°C° 0.5 mm 1 mps 738 mmHg 96%
07:00 -4°C° 0.5 mm 2 mps 738 mmHg 96%
08:00 -4°C° 0.2 mm 3 mps 738 mmHg 95%
09:00 -3°C° 0.2 mm 4 mps 738 mmHg 94%
10:00 -2°C° 0.2 mm 5 mps 738 mmHg 93%
11:00 -1°C° 0.1 mm 5 mps 738 mmHg 93%
12:00 -1°C° 0.1 mm 5 mps 738 mmHg 93%
13:00 -2°C° 0.1 mm 6 mps 738 mmHg 93%
14:00 -1°C° 0.1 mm 5 mps 738 mmHg 93%
15:00 -1°C° 0.1 mm 5 mps 738 mmHg 93%
16:00 -2°C° 0.1 mm 5 mps 738 mmHg 93%
17:00 -2°C° 0.1 mm 4 mps 738 mmHg 93%
18:00 -3°C° 0.1 mm 4 mps 739 mmHg 93%
19:00 -2°C° 0.1 mm 3 mps 739 mmHg 93%
20:00 -4°C° 0 mm 3 mps 739 mmHg 93%
21:00 -4°C° 0 mm 3 mps 740 mmHg 93%
22:00 -4°C° 0 mm 3 mps 740 mmHg 93%
23:00 -4°C° 0 mm 3 mps 739 mmHg 92%

19 January, Tuesday

Time Temperature Precipitation Wind Pressure Humidity
00:00 -4°C° 0 mm 2 mps 739 mmHg 91%
01:00 -5°C° 0 mm 2 mps 739 mmHg 90%
02:00 -5°C° 0 mm 2 mps 739 mmHg 89%
03:00 -4°C° 0 mm 1 mps 738 mmHg 89%
04:00 -6°C° 0 mm 1 mps 738 mmHg 88%
05:00 -6°C° 0 mm 1 mps 737 mmHg 87%
06:00 -4°C° 0 mm 1 mps 737 mmHg 87%
07:00 -4°C° 0 mm 1 mps 737 mmHg 86%
08:00 -3°C° 0 mm 1 mps 736 mmHg 85%
09:00 -2°C° 0 mm 1 mps 736 mmHg 84%
10:00 -1°C° 0 mm 1 mps 735 mmHg 83%
11:00 0°C° 0 mm 1 mps 735 mmHg 83%
12:00 +1°C° 0 mm 1 mps 734 mmHg 83%
13:00 0°C° 0 mm 0 mps 733 mmHg 83%
14:00 +1°C° 0 mm 1 mps 733 mmHg 85%
15:00 +1°C° 0 mm 1 mps 732 mmHg 86%
16:00 +1°C° 0 mm 1 mps 732 mmHg 88%
17:00 +1°C° 0 mm 1 mps 732 mmHg 86%
18:00 +1°C° 0 mm 1 mps 732 mmHg 84%
19:00 0°C° 0 mm 0 mps 733 mmHg 82%
20:00 +1°C° 0 mm 1 mps 733 mmHg 81%
21:00 +1°C° 0 mm 1 mps 733 mmHg 79%
22:00 +1°C° 0 mm 1 mps 733 mmHg 78%
23:00 0°C° 0 mm 1 mps 733 mmHg 78%

20 January, Wednesday

Time Temperature Precipitation Wind Pressure Humidity
00:00 0°C° 0 mm 1 mps 732 mmHg 78%
01:00 -1°C° 0 mm 1 mps 732 mmHg 78%
02:00 -1°C° 0 mm 1 mps 732 mmHg 77%
03:00 -1°C° 0 mm 1 mps 732 mmHg 77%
04:00 -1°C° 0 mm 1 mps 732 mmHg 77%
05:00 -1°C° 0 mm 1 mps 732 mmHg 76%
06:00 -1°C° 0 mm 1 mps 732 mmHg 75%
07:00 0°C° 0 mm 1 mps 731 mmHg 75%
08:00 +1°C° 0 mm 1 mps 731 mmHg 76%
09:00 +2°C° 0 mm 1 mps 731 mmHg 77%
10:00 +3°C° 0 mm 1 mps 731 mmHg 78%
11:00 +3°C° 0 mm 1 mps 730 mmHg 81%
12:00 +4°C° 0 mm 1 mps 730 mmHg 85%
13:00 +4°C° 0 mm 0 mps 729 mmHg 88%
14:00 +4°C° 0 mm 1 mps 729 mmHg 85%
15:00 +4°C° 0 mm 1 mps 728 mmHg 82%
16:00 +3°C° 0 mm 1 mps 727 mmHg 79%
17:00 +3°C° 0 mm 1 mps 727 mmHg 79%
18:00 +1°C° 0 mm 2 mps 727 mmHg 79%
19:00 -1°C° 0 mm 2 mps 727 mmHg 80%
20:00 -1°C° 0 mm 2 mps 727 mmHg 82%
21:00 -2°C° 0 mm 2 mps 726 mmHg 84%
22:00 -3°C° 0 mm 2 mps 726 mmHg 86%
23:00 -1°C° 0 mm 1 mps 725 mmHg 87%

21 January, Thursday

Time Temperature Precipitation Wind Pressure Humidity
00:00 -1°C° 0 mm 1 mps 725 mmHg 88%
01:00 -2°C° 0 mm 1 mps 724 mmHg 89%
02:00 -2°C° 0 mm 1 mps 724 mmHg 90%
03:00 -2°C° 0 mm 1 mps 723 mmHg 90%
04:00 -4°C° 0 mm 0 mps 723 mmHg 91%
05:00 -4°C° 0 mm 0 mps 723 mmHg 91%
06:00 -4°C° 0 mm 0 mps 723 mmHg 91%
07:00 -4°C° 0 mm 0 mps 722 mmHg 91%
08:00 -1°C° 0 mm 1 mps 722 mmHg 90%
09:00 0°C° 0 mm 1 mps 722 mmHg 90%
10:00 +1°C° 0 mm 1 mps 722 mmHg 90%
11:00 +1°C° 0 mm 2 mps 723 mmHg 90%
12:00 0°C° 0 mm 3 mps 723 mmHg 90%
13:00 0°C° 0 mm 4 mps 724 mmHg 90%
14:00 +1°C° 0 mm 3 mps 725 mmHg 91%
15:00 +2°C° 0 mm 2 mps 725 mmHg 93%
16:00 +3°C° 0 mm 1 mps 725 mmHg 94%
17:00 +2°C° 0 mm 1 mps 726 mmHg 93%
18:00 +2°C° 0 mm 1 mps 726 mmHg 92%
19:00 +1°C° 0 mm 1 mps 726 mmHg 91%
20:00 +2°C° 0 mm 1 mps 726 mmHg 91%
21:00 +2°C° 0 mm 1 mps 726 mmHg 91%
22:00 +2°C° 0 mm 1 mps 726 mmHg 91%
23:00 +2°C° 0 mm 1 mps 726 mmHg 90%
Show more